Location: ??
(34.9170°N, 135.5016°E)
Time: 12:02:12
(UTC+00:00)

Cosmos 1626 Rocket - Pass Details

Date: 29 October 2020
Orbit: 602 x 632 km, 82.5° (Epoch: 26 November)

Event Time Altitude Azimuth Distance (km) Brightness Sun altitude
Rises 20:43:49 0° 202° (SSW) 2,902 6.9 -7.4°
Reaches altitude 10° 20:46:08 10° 209° (SSW) 2,002 6.0 -7.0°
Maximum altitude 20:50:20 41° 280° (W) 913 4.0 -6.1°
Drops below altitude 10° 20:54:35 10° 351° (N) 2,018 6.0 -5.3°
Sets 20:56:56 0° 359° (N) 2,929 6.9 -4.8°
